FREGAT DEB, 46002

Orbit data source: Space-Track

FREGAT DEB, 46002 is space debris in LEO originally from a launch on Mon, 18 Jul 2011 UTC launched from the Tyuratam Missile And Space Complex (TTMTR). Debris objects in space refer to the collection of defunct objects orbiting the Earth. Examples of debris include non-operational satellites, rocket bodies, and fragments generated from explosions, collisions, or faulty payload assembly.

Loading next visibility...
Identifier
46002, 2011-037HD
Orbit
LEO
Last TLE update
17 hours ago
Origin
Manufacturer
Lavochkin
Mission
Spacecraft
Bus & Motor
Unknown
Mass
Unknown
Launch date (UTC)
Icon of a cake. It is the launch day of the satellite!2011-07-18 (14 years ago)
Launch vehicle
Unknown
Launch site
Tyuratam Missile And Space Complex (TTMTR)
Object type
Payload
Rocket body
Debris
Shape & HBR
Unknown
Radar Cross Section
Small (<0.1 m²)

Expand to show TLE details & history

TLE from 17 hours ago
0 FREGAT DEB
1 46002U 11037HD  25198.78078646  .00050921  00000-0  92024-1 0  9990
2 46002  51.2047 348.6481 1498375 217.7773 130.8033 11.34196565189825
Epoch: 2025-07-17T18:44Z
TLE epoch observation values (Epoch: 2025-07-17T18:44:19.95Z)
Latitude
0.00005°
Longitude
131.72333°
Altitude
2,902.454 km
Speed
6.188 km/s
True Right ascension
23h 14m 35s
True Declination
0° 00' 00"
Sunlit
Object was in daylight at epoch
Visualization orbit readout
Latitude
-24.10945°
Longitude
108.97833°
Altitude
2,238.224 km
Speed
6.704 km/s
Apparent Right ascension
19h 16m 39s
Apparent Declination
-56° 51' 29"
Sunlit
Object is in full shadow
Visualization observer readout
Local Sidereal Time
00:12:12
Azimuth
215.382° SW
Elevation
-24.891°
Doppler factor
1
Orbital elements
Apogee altitude
3,243.998 km
Perigee altitude
736.241 km
Semi-major axis
8,368.257 km
Eccentricity
0.14984
Inclination
51.2047°
RAAN
348.6481°
Arg. of periapsis
217.7773°
True anomaly
142.30176°
Mean anomaly
130.8033°
Eccentric anomaly
136.69197°
Mean motion
2.83525 °/min
Orbital period
126.97 mins
BSTAR
0.092024
Loading maneuver chart data...
Loading SW <> Apogee altitude chart data...
Loading historical data...
Loading historical data...
Loading historical data...
Loading historical data...
Loading historical data...
Loading historical data...
Loading historical data...
|